Location: Bu�n Treun
(12.1333°N, 108.3167°E)
Time: 23:45:16
(UTC+00:00)

Skynet4D Del rocket - Pass Details

Date: 13 July 2020
Orbit: 763 x 1291 km, 26.9° (Epoch: 14 August)

Event Time Altitude Azimuth Distance (km) Brightness Sun altitude
Exits shadow 20:34:04 50° 224° (SW) 1,549 4.6 -26.0°
Maximum altitude 20:36:26 76° 153° (SSE) 1,267 4.4 -25.5°
Drops below altitude 10° 20:44:05 10° 69° (ENE) 3,029 7.6 -23.9°
Sets 20:46:45 0° 67° (ENE) 3,918 8.6 -23.4°
